Location: C.E.K. Mees Observatory
(42.7003°N, 77.4088°W)
Time: 22:45:41
(UTC-04:00)

Vanguard 2 - Visible Passes

Search period start: 19 July 2018 00:00
Search period end: 29 July 2018 00:00
Orbit: 553 x 2939 km, 32.9° (Epoch: 19 July)

Date Brightness Start Highest point End Pass type
(mag) Time Alt. Az. Time Alt. Az. Time Alt. Az.
19 Jul 10.3 01:19:48 10° W 01:34:22 35° SW 01:35:39 35° SSW visible
19 Jul 10.5 21:13:37 10° WSW 21:29:53 61° S 21:46:31 10° ESE visible
19 Jul 10.3 23:24:54 10° W 23:41:48 52° SSW 23:50:15 30° SE visible
20 Jul 10.6 01:38:34 10° W 01:51:35 29° SW 01:51:35 29° SW visible
20 Jul 10.4 21:31:37 10° WSW 21:47:59 61° S 22:04:31 10° ESE visible
20 Jul 10.4 23:43:11 10° W 23:59:40 47° SSW 00:06:13 34° SSE visible
21 Jul 10.9 01:57:46 10° W 02:07:34 22° SW 02:07:34 22° SW visible
21 Jul 10.5 21:49:41 10° W 22:06:03 59° S 22:20:55 14° ESE visible
22 Jul 10.4 00:01:34 10° W 00:17:23 41° SSW 00:22:16 35° S visible
22 Jul 11.2 02:17:47 10° W 02:23:36 16° WSW 02:23:36 16° WSW visible
22 Jul 10.5 22:07:48 10° W 22:24:04 56° SSW 22:37:00 19° SE visible
23 Jul 10.6 00:20:07 10° W 00:35:02 35° SW 00:38:21 32° SSW visible
23 Jul 10.5 22:25:59 10° W 22:42:02 51° SSW 22:53:08 24° SE visible
24 Jul 10.8 00:38:57 10° W 00:52:33 28° SW 00:54:29 28° SSW visible
24 Jul 10.6 22:44:14 10° W 22:59:55 46° SSW 23:09:19 27° SSE visible
25 Jul 11.0 00:58:15 10° W 01:10:00 22° SW 01:10:40 22° SW visible
25 Jul 10.5 20:51:37 10° W 21:06:15 57° S 21:23:27 10° ESE visible
25 Jul 10.7 23:02:37 10° W 23:17:42 39° SSW 23:25:33 28° SSE visible
26 Jul 11.3 01:18:28 10° WSW 01:26:55 16° SW 01:26:55 16° SW visible
26 Jul 10.6 21:09:43 10° W 21:24:17 53° SSW 21:40:29 12° SE visible
26 Jul 10.8 23:21:12 10° W 23:35:24 33° SW 23:41:51 26° S visible
27 Jul 11.5 01:42:01 10° WSW 01:43:12 10° SW 01:43:12 10° SW visible
27 Jul 10.7 21:27:52 10° W 21:42:15 48° SSW 21:56:49 15° SE visible
27 Jul 11.0 23:40:07 10° W 23:53:01 27° SW 23:58:11 23° SSW visible
28 Jul 10.8 21:46:08 10° W 22:00:11 43° SSW 22:13:12 17° SSE visible
